IZ2MHJ-3 Weather Reports


Display with metric or nautical units.
time (UTC)temp
F
wind
direction
speed
MPH
gust
MPH
rain 1hr
in
rain 24hr
in
rain mn
in
humidity
%
barometer
mb
20260506044434 55 0.0 0.0 0.00 0.00 0.00 99 1011.6
20260506042433 55 0.0 0.0 0.00 0.00 0.00 99 1012.4
20260506040433 56 0.0 0.0 0.00 0.00 0.00 99 1012.2
20260506034432 55 0.0 0.0 0.00 0.00 0.00 99 1012.1
20260506032432 55 0.0 0.0 0.00 0.00 0.00 99 1012.3
20260506030431 55 0.0 0.0 0.00 0.00 0.00 99 1012.2
20260506024431 55 0.0 0.0 0.00 0.00 0.00 99 1012.9
20260506022431 55 0.0 0.0 0.00 0.00 0.00 99 1013.1
20260506020430 55 0.0 0.0 0.00 0.00 0.00 99 1013.1
20260506014430 56 0.0 0.0 0.00 0.00 0.00 99 1013.2
20260506012430 56 0.0 0.0 0.00 0.00 0.00 99 1013.3
20260506010430 56 0.0 0.0 0.00 0.00 0.00 98 1013.4
20260506004430 56 0.0 0.0 0.00 0.00 0.00 98 1013.5
20260506002429 56 0.0 0.0 0.00 0.00 0.00 98 1013.7
20260506000431 56 0.0 0.0 0.00 0.00 0.00 98 1014.1
20260505234428 56 0.0 0.0 0.00 0.00 0.00 98 1014.0
20260505232428 56 0.0 0.0 0.00 0.00 0.00 96 1014.1
20260505230428 56 0.0 0.0 0.00 0.00 0.00 97 1014.1
20260505224427 56 0.0 0.0 0.00 0.00 0.00 97 1014.4
20260505222427 56 0.0 0.0 0.00 0.00 0.00 98 1014.3
20260505220427 56 0.0 0.0 0.00 0.00 0.00 98 1014.5
20260505214426 56 0.0 0.0 0.00 0.00 0.00 98 1014.6
20260505212426 56 0.0 0.0 0.00 0.00 0.00 98 1014.9
20260505210426 56 0.0 0.0 0.00 0.00 0.00 98 1015.2
20260505204425 57 0.0 0.0 0.00 0.00 0.00 94 1015.1
20260505202425 57 0.0 0.0 0.00 0.00 0.00 93 1015.0
20260505200425 57 0.0 0.0 0.00 0.00 0.00 92 1015.1
20260505194425 58 0.0 0.0 0.00 0.00 0.00 93 1015.0
20260505192424 58 0.0 0.0 0.00 0.00 0.00 93 1015.0
20260505190424 57 0.0 0.0 0.00 0.00 0.00 92 1014.7
20260505184424 57 0.0 0.0 0.00 0.00 0.00 93 1014.8
20260505182423 58 0.0 0.0 0.00 0.00 0.00 92 1014.7
20260505180423 58 0.0 0.0 0.00 0.00 0.00 90 1014.7
20260505174423 58 0.0 0.0 0.00 0.00 0.00 87 1014.7
20260505172423 58 0.0 0.0 0.00 0.00 0.00 88 1014.6
20260505170422 58 0.0 0.0 0.00 0.00 0.00 88 1014.6
20260505164422 58 0.0 0.0 0.00 0.00 0.00 88 1014.7
20260505162421 58 0.0 0.0 0.00 0.00 0.00 88 1014.8
20260505160421 58 0.0 0.0 0.00 0.00 0.00 89 1014.9
20260505152421 58 0.0 0.0 0.00 0.00 0.00 91 1015.1
20260505150530 58 0.0 0.0 0.00 0.00 0.00 92 1015.1
20260505140529 57 0.0 0.0 0.00 0.00 0.00 94 1015.3
20260505124527 56 0.0 0.0 0.00 0.00 0.00 95 1015.6
20260505122527 56 0.0 0.0 0.00 0.00 0.00 96 1015.7
20260505120522 56 0.0 0.0 0.00 0.00 0.00 96 1015.8
20260505114521 56 0.0 0.0 0.00 0.00 0.00 98 1015.8
20260505112521 56 0.0 0.0 0.00 0.00 0.00 98 1015.8
20260505110521 55 0.0 0.0 0.00 0.00 0.00 99 1015.8
20260505100520 57 0.0 0.0 0.00 0.00 0.00 91 1015.6
20260505094520 58 0.0 0.0 0.00 0.00 0.00 87 1015.5
20260505092519 59 0.0 0.0 0.00 0.00 0.00 85 1015.3
20260505090519 59 0.0 0.0 0.00 0.00 0.00 84 1014.2
20260505084519 58 0.0 0.0 0.00 0.00 0.00 85 1014.1
20260505082518 58 0.0 0.0 0.00 0.00 0.00 84 1015.1
20260505080518 57 0.0 0.0 0.00 0.00 0.00 85 1015.2
20260505074518 58 0.0 0.0 0.00 0.00 0.00 86 1015.7
20260505072517 57 0.0 0.0 0.00 0.00 0.00 83 1015.8
20260505070517 57 0.0 0.0 0.00 0.00 0.00 77 1015.7
20260505064517 59 0.0 0.0 0.00 0.00 0.00 75 1015.3
20260505062516 60 0.0 0.0 0.00 0.00 0.00 70 1014.9
20260505060516 58 0.0 0.0 0.00 0.00 0.00 71 1015.0
20260505054516 58 0.0 0.0 0.00 0.00 0.00 67 1014.7
20260505052515 59 0.0 0.0 0.00 0.00 0.00 67 1014.5
20260505050515 59 0.0 0.0 0.00 0.00 0.00 63 1014.4